Salamanca, Spain

12:31 AM CET on January 20, 2018 (GMT +0100)
Matacan

Weather History for LESA - December, 2013

Change the Weather History Date:

Monday, December 30, 2013

  Actual Average Record
Temperature  
Mean Temperature 36 °F -  
Max Temperature 47 °F - - ()
Min Temperature 24 °F - - ()
Degree Days  
Heating Degree Days 30    
Moisture  
Dew Point 31 °F    
Average Humidity 85    
Maximum Humidity 100    
Minimum Humidity 41    
Precipitation  
Precipitation 0.08 in 0.05 in - ()
Sea Level Pressure  
Sea Level Pressure 30.33 in    
Wind  
Wind Speed 2 mph ()    
Max Wind Speed 12 mph    
Max Gust Speed -    
Visibility 7.0 miles    
Events Rain    
T = Trace of Precipitation, MM = Missing Value Source: Averaged Metar Reports

Daily Weather History Graph

Daily Weather History Graph

Search for Another Location

Airport or City:

Trip Planner

Search our weather history database for the weather conditions in past years. The results will help you decide how hot, cold, wet, or windy it might be!

Date:

Astronomy

Dec. 30, 2013 Rise Set
Actual Time 8:46 AM CET 6:02 PM CET
Civil Twilight 8:15 AM CET 6:33 PM CET
Nautical Twilight 7:40 AM CET 7:08 PM CET
Astronomical Twilight 7:07 AM CET 7:41 PM CET
Moon 6:20 AM CET (12/30) 4:22 PM CET (12/30)
Length of Visible Light 10h 18m
Length of Day
9h 16m
Waning Crescent, 6% of the Moon is Illuminated
Dec 30
Waning Crescent
Jan 1
New
Jan 8
First Quarter
Jan 16
Full
Jan 24
Last Quarter

Hourly Weather History & Observations

Time (CET) Temp. Windchill Dew Point Humidity Pressure Visibility Wind Dir Wind Speed Gust Speed Precip Events Conditions
12:00 AM 28 °F - 27 °F 93%  in - Calm Calm - -  
12:00 AM 28.4 °F - 26.6 °F 93% 30.42 in - Calm Calm - N/A   Clear
12:30 AM 28.4 °F - 26.6 °F 93% 30.42 in - Calm Calm - N/A   Clear
1:00 AM 27 °F - 26 °F 95%  in 6 mi Calm Calm - -   Clear
1:00 AM 28.4 °F - 26.6 °F 93% 30.39 in - Calm Calm - N/A   Clear
1:30 AM 26.6 °F - 26.6 °F 100% 30.39 in - Calm Calm - N/A   Clear
2:00 AM 26 °F - 25 °F 93%  in - Calm Calm - -  
2:00 AM 26.6 °F - 26.6 °F 100% 30.39 in - Calm Calm - N/A   Clear
2:30 AM 26.6 °F - 26.6 °F 100% 30.36 in - Calm Calm - N/A   Clear
3:00 AM 26 °F - 25 °F 96%  in - Calm Calm - -  
3:00 AM 26.6 °F - 26.6 °F 100% 30.39 in - Calm Calm - N/A   Clear
3:30 AM 26.6 °F - 26.6 °F 100% 30.39 in - Calm Calm - N/A   Clear
4:00 AM 25 °F - 24 °F 97%  in 6 mi Calm Calm - -   Clear
4:00 AM 24.8 °F - 24.8 °F 100% 30.39 in - Calm Calm - N/A   Clear
4:30 AM 24.8 °F - 24.8 °F 100% 30.39 in - Calm Calm - N/A   Clear
5:00 AM 26 °F - 26 °F 97%  in - East 2.3 mph - -  
5:00 AM 26.6 °F - 26.6 °F 100% 30.36 in - Variable 2.3 mph - N/A   Clear
5:30 AM 26.6 °F - 26.6 °F 100% 30.36 in - Calm Calm - N/A   Clear
6:00 AM 26 °F - 26 °F 97%  in - Calm Calm - -  
6:00 AM 26.6 °F - 26.6 °F 100% 30.36 in - Calm Calm - N/A   Clear
6:30 AM 26.6 °F - 24.8 °F 93% 30.36 in - Variable 2.3 mph - N/A   Clear
7:00 AM 26 °F - 25 °F 92%  in 7 mi Calm Calm - -   Clear
7:00 AM 26.6 °F - 24.8 °F 93% 30.36 in - Calm Calm - N/A   Clear
7:30 AM 28.4 °F - 26.6 °F 93% 30.36 in - Calm Calm - N/A   Clear
8:00 AM 27 °F - 26 °F 93%  in - SSE 4.6 mph - -  
8:00 AM 26.6 °F 22.6 °F 26.6 °F 100% 30.36 in - South 3.5 mph - N/A   Clear
8:30 AM 28.4 °F - 28.4 °F 100% 30.36 in - Variable 2.3 mph - N/A   Clear
9:00 AM 28 °F - 26 °F 91%  in - Calm Calm - -  
9:00 AM 28.4 °F - 28.4 °F 100% 30.36 in - Calm Calm - N/A   Clear
9:30 AM 28.4 °F - 26.6 °F 93% 30.36 in - Calm Calm - N/A   Clear
10:00 AM 31 °F - 30 °F 96%  in 9 mi Calm Calm - -   Partly Cloudy
10:00 AM 32.0 °F - 30.2 °F 93% 30.36 in - Calm Calm - N/A   Clear
10:30 AM 33.8 °F - 32.0 °F 93% 30.36 in - Calm Calm - N/A   Clear
11:00 AM 35 °F - 33 °F 91%  in - Calm Calm - -  
11:00 AM 33.8 °F - 33.8 °F 100% 30.36 in - Calm Calm - N/A   Clear
11:30 AM 35.6 °F - 33.8 °F 93% 30.39 in - Calm Calm - N/A   Clear
12:00 PM 37 °F - 35 °F 88%  in - Calm Calm - -  
12:00 PM 37.4 °F - 33.8 °F 87% 30.36 in - Calm Calm - N/A   Clear
12:30 PM 39.2 °F - 37.4 °F 93% 30.36 in - Calm Calm - N/A   Clear
1:00 PM 44 °F - 36 °F 66%  in 9 mi South 6.9 mph - -   Clear
1:00 PM 42.8 °F 40.1 °F 37.4 °F 81% 30.33 in - South 4.6 mph - N/A   Clear
1:30 PM 44.6 °F 40.2 °F 37.4 °F 76% 30.30 in - South 8.1 mph - N/A   Clear
2:00 PM 47 °F - 36 °F 54%  in - SSW 9.2 mph - -  
2:00 PM 46.4 °F 41.9 °F 35.6 °F 66% 30.30 in - SW 9.2 mph - N/A   Clear
2:30 PM 46.4 °F 41.1 °F 30.2 °F 53% 30.30 in - SW 11.5 mph - N/A   Clear
3:00 PM 47 °F - 31 °F 41%  in - SW 6.9 mph - -  
3:00 PM 46.4 °F 43.5 °F 32.0 °F 57% 30.30 in - WSW 5.8 mph - N/A   Clear
3:30 PM 46.4 °F 42.4 °F 33.8 °F 62% 30.27 in - SW 8.1 mph - N/A   Clear
4:00 PM 45 °F - 32 °F 49%  in 9 mi SW 9.2 mph - -   Clear
4:00 PM 44.6 °F 39.7 °F 32.0 °F 61% 30.27 in - WSW 9.2 mph - N/A   Clear
4:30 PM 44.6 °F 40.2 °F 33.8 °F 66% 30.27 in - SW 8.1 mph - N/A   Clear
5:00 PM 44 °F - 32 °F 52%  in - SSW 6.9 mph - -  
5:00 PM 44.6 °F 40.7 °F 33.8 °F 66% 30.27 in - SW 6.9 mph - N/A   Clear
5:30 PM 42.8 °F 38.0 °F 33.8 °F 70% 30.27 in - SSW 8.1 mph - N/A   Clear
6:00 PM 42 °F - 33 °F 60%  in - SW 4.6 mph - -  
6:00 PM 42.8 °F 40.1 °F 33.8 °F 70% 30.27 in - SW 4.6 mph - N/A   Clear
6:30 PM 41.0 °F 39.0 °F 33.8 °F 76% 30.27 in - South 3.5 mph - N/A   Clear
7:00 PM 40 °F - 33 °F 69%  in 9 mi SSW 4.6 mph - - Rain Light Drizzle
7:00 PM 41.0 °F 38.0 °F 33.8 °F 76% 30.27 in 6.2 mi SW 4.6 mph - N/A   Light Drizzle
7:30 PM 39.2 °F - 35.6 °F 87% 30.27 in 6.2 mi Calm Calm - N/A Rain Light Rain
8:00 PM 39 °F - 34 °F 76%  in - Calm Calm - -   Unknown Precipitation
8:00 PM 39.2 °F - 33.8 °F 81% 30.27 in 6.2 mi Calm Calm - N/A Rain Light Rain
8:30 PM 39.2 °F 37.0 °F 35.6 °F 87% 30.27 in 6.2 mi SW 3.5 mph - N/A Rain Light Rain
9:00 PM 38 °F - 35 °F 85%  in - South 4.6 mph - -   Unknown Precipitation
9:00 PM 39.2 °F 37.0 °F 35.6 °F 87% 30.27 in 6.2 mi South 3.5 mph - N/A Rain Light Rain
9:30 PM 37.4 °F - 35.6 °F 93% 30.27 in 6.2 mi Variable 1.2 mph - N/A Rain Light Rain
10:00 PM 38 °F - 35 °F 82%  in 9 mi Calm Calm - -   Partly Cloudy
10:00 PM 37.4 °F - 35.6 °F 93% 30.27 in 6.2 mi Calm Calm - N/A   Mostly Cloudy
10:30 PM 37.4 °F - 35.6 °F 93% 30.27 in 6.2 mi Calm Calm - N/A   Mostly Cloudy
11:00 PM 38 °F - 35 °F 84%  in - Calm Calm - -   Unknown Precipitation
11:00 PM 37.4 °F - 35.6 °F 93% 30.24 in 6.2 mi Calm Calm - N/A   Scattered Clouds
11:30 PM 37.4 °F - 35.6 °F 93% 30.24 in 6.2 mi Calm Calm - N/A   Partly Cloudy